sat.trackr.live / text

‹ back to catalog

STARLINK-34983

NORAD 65411 · 2025-192H

PAYLOAD ACTIVE UNKNOWN

§ Identity

Operator
Country
US
Launch date
2025-08-31
Launch site
AFETR
Launch vehicle
Mass (kg)
RCS (m²)

Purposes: comms

External: N2YO · Heavens-Above · Gunter

§ Orbital elements

Epoch: 2026-09-20T16:21:00.460512Z

Period
94.01 min
Inclination
53.1494°
Eccentricity
0.0000236
Mean motion
15.31721218 rev/d
Perigee alt
470.5 km
Apogee alt
470.8 km
Semi-major
6,848.8 km
B*
4.9850e-4
RAAN
44.8371°
Arg perigee
312.2864°
Mean anomaly
47.8117°
Rev number
5,926

§ Raw data

STARLINK-349831 65411U 25192H   26263.68125533  .00015146  00000+0  49850-3 0  99932 65411  53.1494  44.8371 0000236 312.2864  47.8117 15.31721218 59260

JSON: /api/v1/satellites/65411 · /tle

For live sub-satellite position, see the globe view (requires WebGL).

§ Visibility from observer

Set your observer location to see the next 7 days of passes ≥ 10°. The values pass through the URL so the page stays shareable.

No JS? Fill the form by hand. The geolocation button needs JavaScript.